Regional Weather Roundup
Issued by NWS

Home | Current Version | Previous Version | Graphics & Text | Print | Product List | Glossary On
Versions: 1 2 3 4 5 6 7 8 9 10 11 12 13 14 15 16 17 18 19 20 21 22 23 24 25 26 27 28 29 30 31 32 33 34 35 36 37 38 39 40 41 42 43 44 45 46 47 48 49
000
ASUS43 KDMX 220807
RWRIA

WEATHER ROUNDUP FOR IOWA
NATIONAL WEATHER SERVICE DES MOINES IA
300 AM CDT FRI AUG 22 2014

NOTE: "FAIR" INDICATES FEW OR NO CLOUDS BELOW 12,000 FEET WITH NO
SIGNIFICANT WEATHER AND/OR OBSTRUCTIONS TO VISIBILITY.

* - THESE STATIONS ARE NOT NWS STATIONS...THUS NOT UNDER NWS
QUALITY CONTROL.  THEY ALSO DO NOT REPORT WEATHER SUCH
AS PRECIPITATION OR FOG.

IAZ001>003-012>014-020>022-031>034-043>046-220900-
   NORTHWEST IOWA

CITY           SKY/WX    TMP DP  RH WIND       PRES   REMARKS
CARROLL *      MOCLDY    75  75 100 SW7G13    29.89S
CHEROKEE *     MOCLDY    73  73 100 CALM      29.88R FOG
DENISON *      MOCLDY    75  75 100 SE5       29.88R
LE MARS *      CLEAR     73  72  94 CALM      29.90R
ORANGE CITY *  CLEAR     73  70  88 NE5       29.90R
SHELDON *      PTCLDY    70  68  94 NE5       29.89R
SIOUX CITY     MOCLDY    76  73  91 SW3       29.87R
SPENCER        MOCLDY    70  68  93 CALM      29.90R
STORM LAKE *   CLEAR     73  73 100 S8        29.91R FOG
$$

IAZ055>058-069>071-079>083-090>094-220900-
   SOUTHWEST IOWA

CITY           SKY/WX    TMP DP  RH WIND       PRES   REMARKS
ATLANTIC *     LGT RAIN  73  70  88 E6        29.89S
AUDUBON *      LGT RAIN  75  72  88 CALM      29.90F
CLARINDA *     CLEAR     77  72  83 NE7       29.91S
COUNCIL BLFS * MOCLDY    73  73 100 E5        29.88R
CRESTON *      CLOUDY    72  68  88 N14G21    29.93F
HARLAN  *      CLOUDY    73  73 100 CALM      29.92R
LAMONI         CLOUDY    79  73  82 W12       29.91R HX  82
RED OAK *      MOCLDY    72  72 100 E6        29.91R
SHENANDOAH *   CLEAR     77  73  88 NE9       29.90R
$$

IAZ047>049-059>061-072>074-084-220900-
   CENTRAL IOWA

CITY           SKY/WX    TMP DP  RH WIND       PRES   REMARKS
AMES           CLOUDY    74  73  97 CALM      29.87R
ANKENY *       MOCLDY    79  77  94 SW12G22   29.89R HX  83
CHARITON *     CLOUDY    77  75  94 NW8       29.91R
DES MOINES     CLOUDY    80  73  79 W22G31    29.89R THUNDER HX  84
GRINNELL*      MOCLDY    77  73  88 S5        29.87S
KNOXVILLE *    MOCLDY    81  73  78 SW9       29.86R HX  85
MARSHALLTOWN   MOCLDY    73  72  96 CALM      29.87R FOG
PELLA *        CLOUDY    77  75  94 W5        29.88R
PERRY *        RAIN      73  70  88 SW23G36   29.91R
$$

IAZ004>006-015-016-023>025-035-036-220900-
   NORTH CENTRAL IOWA

CITY           SKY/WX    TMP DP  RH WIND       PRES   REMARKS
ALGONA *       CLEAR     72  72 100 CALM      29.89R FOG
CLARION *      MOCLDY    73  73 100 CALM      29.89R
ESTHERVILLE    PTCLDY    67  66  97 CALM      29.89R
FORT DODGE *   CLOUDY    73  72  94 CALM      29.90R
MASON CITY     PTCLDY    71  70  96 SW6       29.89R
FOREST CITY *    N/A     70  70 100 CALM      29.89R FOG
IOWA FALLS *     N/A     70  68  94 CALM      29.90R FOG
$$

IAZ007>011-017>019-026>030-037>042-050>054-066-220900-
   NORTHEAST IOWA

CITY           SKY/WX    TMP DP  RH WIND       PRES   REMARKS
CEDAR RAPIDS   MOCLDY    73  73 100 CALM      29.86R FOG
CHARLES CITY * CLOUDY    72  72 100 CALM      29.89R FOG
CLINTON *      PTCLDY    72  70  94 E5        29.89S
DECORAH *      MOCLDY    70  70 100 S6        29.87S FOG
DUBUQUE        PTCLDY    71  71 100 CALM      29.88F
MONTICELLO *   FOG       68  68 100 CALM      29.87R VSB 1/2
OELWEIN *      PTCLDY    70  70 100 SE5       29.89R FOG
WATERLOO       PTCLDY    71  70  96 NE6       29.86R FOG
$$

IAZ064-065-067-068-078-220900-
   EAST CENTRAL IOWA

CITY           SKY/WX    TMP DP  RH WIND       PRES   REMARKS
DAVENPORT      CLOUDY    75  73  93 S9        29.87S THUNDER
IOWA CITY      PTCLDY    73  73 100 CALM      29.87R FOG
MT. PLEASANT * MOCLDY    79  75  89 SW5       29.87R HX  82
MUSCATINE *    CLOUDY    79  75  89 S7        29.86S HX  82
QUAD CITIES    MOCLDY    77  74  90 CALM      29.87R
$$

IAZ062-063-075>077-085>089-095>099-220900-
   SOUTHEAST IOWA

CITY           SKY/WX    TMP DP  RH WIND       PRES   REMARKS
BURLINGTON     PTCLDY    75  74  96 S6        29.86S
FAIRFIELD *    PTCLDY    79  73  83 SW7G14    29.87R HX  82
FORT MADISON * PTCLDY    81  75  83 SW7       29.88R HX  86
KEOKUK *       PTCLDY    81  75  83 SW12      29.87R HX  86
OSKALOOSA *      N/A     77  72  83 SW10      29.87S
CENTERVILLE *  CLEAR     79  73  83 SW3       29.91R HX  82
OTTUMWA        MOCLDY    79  71  76 SW8       29.87R HX  82
WASHINGTON *   MOCLDY    75  75 100 SW3       29.87R
$$

ABBREVIATIONS USED IN REMARKS
   TC - TEMPERATURES IN CELSIUS
  WCI - WIND CHILL INDEX
   HX - HEAT INDEX
  VSB - VISIBILITY
$$



USA.gov is the U.S. government's official web portal to all federal, state and local government web resources and services.